(176819) = 2002 TF100 = 2004 BH54

Discovered at Socorro on 2002-10-04 by LINEAR.

Orbit

Orbit type: Main Belt

Note: WebGL enabled browser required.

epoch2024-03-31.0
epoch JD2460400.5
perihelion date2023-03-11.08794
perihelion JD2460014.58794
argument of perihelion (°)205.64040
ascending node (°)338.12300
inclination (°)2.18151
eccentricity0.1318040
perihelion distance (AU)2.0887233
Tisserand w.r.t. Jupiter3.5
ΔV w.r.t. Earth (km/sec)9.0
semimajor axis (AU)2.4058200
mean anomaly (°)101.92894
mean daily motion (°/day)0.26412480
aphelion distance (AU)2.723
period (years)3.73
P-vector [x]-0.99772674
P-vector [y]-0.05340125
P-vector [z]-0.04110543
Q-vector [x]0.06587998
Q-vector [y]-0.90129681
Q-vector [z]-0.42816339
absolute magnitude16.29
phase slope0.15
uncertainty0
referenceMPEC 2024-D06
observations used776
oppositions16
arc length (days)9079
first opposition used1998
last opposition used2023
residual rms (arc-secs)0.67
perturbers coarse indicatorM-v
perturbers precise indicator003Ek
first observation date used1998-08-30.0
last observation date used2023-07-09.0
computer nameMPCLINUX
JD of orbit computation2456612.546139
perihelion JD uncertainty (days)6.1621E-05
argument of perihelion uncertainty (°)1.1432E-04
ascending node uncertainty (°)1.1344E-04
inclination uncertainty (°)4.3830E-06
eccentricity uncertainty 5.3451E-08
perihelion distance uncertainty (AU)1.2094E-07
Minimum Orbit Intersection Distances (in AU)
for orbit epoch: 2460400.5, reference: E2024-D06
Mercury1.67704
Venus1.37134
Earth1.09142
Mars0.4397
Jupiter2.23549
Saturn6.54838
Uranus16.3282
Neptune27.1294

Observations

807 total observations over interval: 1998 08 30.37921 – 2023 07 09.169095
These data are available for download (format description).

Date (UT) J2000 RA J2000 Dec Magn Location Ref
1998 08 30.37921 23 20 26.03 -03 50 47.8 20.5 V 691 – Steward Observatory, Kitt Peak-Spacewatch MPS 97788
1998 08 30.39725 23 20 25.06 -03 50 53.4 19.9 V 691 – Steward Observatory, Kitt Peak-Spacewatch MPS 97788
1998 08 30.41526 23 20 24.06 -03 50 57.7 19.6 V 691 – Steward Observatory, Kitt Peak-Spacewatch MPS 97788
1999 12 07.30189 06 25 07.40 +26 43 28.7 19.1   704 – Lincoln Laboratory ETS, New Mexico MPS 97788
1999 12 07.31647 06 25 06.53 +26 43 29.3 19.4   704 – Lincoln Laboratory ETS, New Mexico MPS 97788
1999 12 07.33105 06 25 05.72 +26 43 31.0 20.4   704 – Lincoln Laboratory ETS, New Mexico MPS 97788
2002 10 04.24874 00 42 50.77 +06 41 05.4 19.3   704 – Lincoln Laboratory ETS, New Mexico MPS 64017
2002 10 04.26438 00 42 49.89 +06 41 00.6 20.0   704 – Lincoln Laboratory ETS, New Mexico MPS 64017
2002 10 04.29581 00 42 48.01 +06 40 50.2 20.0   704 – Lincoln Laboratory ETS, New Mexico MPS 64017
2002 10 04.31160 00 42 47.07 +06 40 44.8 20.0   704 – Lincoln Laboratory ETS, New Mexico MPS 64017
2002 10 05.16680 00 41 59.15 +06 36 13.9 19.9   644 – Palomar Mountain/NEAT MPS 64017
2002 10 05.23495 00 41 55.24 +06 35 52.4 19.1   644 – Palomar Mountain/NEAT MPS 64017
2002 10 05.29749 00 41 51.62 +06 35 32.9 19.1   644 – Palomar Mountain/NEAT MPS 64017
2002 10 09.34464 00 38 04.20 +06 13 58.9 20.0 V 291 – LPL/Spacewatch II MPS 64017
2002 10 09.36798 00 38 02.86 +06 13 51.4 19.8 V 291 – LPL/Spacewatch II MPS 64017
2002 10 09.39139 00 38 01.51 +06 13 44.0 19.9 V 291 – LPL/Spacewatch II MPS 64017
2002 10 11.24563 00 36 19.06 +06 03 50.7 19.6   704 – Lincoln Laboratory ETS, New Mexico MPS 64017
2002 10 11.26148 00 36 18.09 +06 03 47.2 20.1   704 – Lincoln Laboratory ETS, New Mexico MPS 64017
2002 10 11.27720 00 36 17.24 +06 03 40.0 20.1   704 – Lincoln Laboratory ETS, New Mexico MPS 64017
2002 10 11.30881 00 36 15.52 +06 03 29.8 20.3   704 – Lincoln Laboratory ETS, New Mexico MPS 64017
2003 11 20.47098 09 08 15.20 +18 35 51.8 20.3   704 – Lincoln Laboratory ETS, New Mexico MPS 97928
2003 11 20.48342 09 08 15.74 +18 35 49.6 20.4   704 – Lincoln Laboratory ETS, New Mexico MPS 97928
2003 11 20.49592 09 08 16.40 +18 35 45.8 20.4   704 – Lincoln Laboratory ETS, New Mexico MPS 97928
2003 11 20.50854 09 08 17.03 +18 35 44.3 20.4   704 – Lincoln Laboratory ETS, New Mexico MPS 97928
2004 01 13.26810 09 12 58.01 +18 16 17.5 19.0 R 699 – Lowell Observatory-LONEOS MPS 97928
2004 01 13.28820 09 12 57.06 +18 16 19.5   699 – Lowell Observatory-LONEOS MPS 97928
2004 01 13.30824 09 12 56.08 +18 16 24.3   699 – Lowell Observatory-LONEOS MPS 97928
2004 01 13.32826 09 12 55.01 +18 16 25.9   699 – Lowell Observatory-LONEOS MPS 97928
2004 01 22.29484 09 05 07.15 +18 44 09.8 19.5   704 – Lincoln Laboratory ETS, New Mexico MPS 97928
2004 01 22.30773 09 05 06.37 +18 44 12.5 19.9   704 – Lincoln Laboratory ETS, New Mexico MPS 97928
2004 01 22.32074 09 05 05.59 +18 44 15.0 19.6   704 – Lincoln Laboratory ETS, New Mexico MPS 97928
2004 01 22.33349 09 05 04.82 +18 44 16.9 19.7   704 – Lincoln Laboratory ETS, New Mexico MPS 97928
2004 01 22.34652 09 05 03.96 +18 44 20.2 19.4   704 – Lincoln Laboratory ETS, New Mexico MPS 97928
2004 01 24.30514 09 03 08.51 +18 50 47.9 18.4   704 – Lincoln Laboratory ETS, New Mexico MPS 97928
2004 01 24.31747 09 03 07.79 +18 50 50.4 18.7   704 – Lincoln Laboratory ETS, New Mexico MPS 97928
2004 01 24.32992 09 03 06.89 +18 50 52.9 18.9   704 – Lincoln Laboratory ETS, New Mexico MPS 97928
2004 01 24.34278 09 03 06.18 +18 50 55.2 18.5   704 – Lincoln Laboratory ETS, New Mexico MPS 97928
2004 01 24.35570 09 03 05.37 +18 50 57.9 18.9   704 – Lincoln Laboratory ETS, New Mexico MPS 97928
2004 01 30.28714 08 56 57.71 +19 10 28.6 19.2   704 – Lincoln Laboratory ETS, New Mexico MPS 97928
2004 01 30.29981 08 56 56.81 +19 10 31.4 19.4   704 – Lincoln Laboratory ETS, New Mexico MPS 97928
2004 01 30.31249 08 56 56.01 +19 10 33.4 19.3   704 – Lincoln Laboratory ETS, New Mexico MPS 97928
2004 01 30.32516 08 56 55.16 +19 10 35.7 18.5   704 – Lincoln Laboratory ETS, New Mexico MPS 97928
2004 02 10.29686 08 45 21.21 +19 42 42.2 17.9 V 703 – Catalina Sky Survey MPS 98778
2004 02 10.31054 08 45 20.35 +19 42 44.2 18.8 V 703 – Catalina Sky Survey MPS 98778
2004 02 10.32427 08 45 19.44 +19 42 45.9 19.1 V 703 – Catalina Sky Survey MPS 98778
2004 02 10.33802 08 45 18.53 +19 42 47.5 18.9 V 703 – Catalina Sky Survey MPS 98778
2004 02 10.80132 08 44 50.79 +19 43 54.8 18.1 R 106 – Crni Vrh MPS 98778
2004 02 10.80910 08 44 50.25 +19 43 55.8 18.4 R 106 – Crni Vrh MPS 98778
2004 02 10.81686 08 44 49.77 +19 43 57.1 18.0 R 106 – Crni Vrh MPS 98778
2004 02 11.28106 08 44 21.50 +19 45 07.5 18.6 R 699 – Lowell Observatory-LONEOS MPS 98778
2004 02 11.30134 08 44 20.21 +19 45 10.4   699 – Lowell Observatory-LONEOS MPS 98778
2004 02 11.32158 08 44 18.95 +19 45 13.1   699 – Lowell Observatory-LONEOS MPS 98778
2004 02 11.34186 08 44 17.71 +19 45 15.8   699 – Lowell Observatory-LONEOS MPS 98778
2004 02 14.22212 08 41 28.31 +19 51 50.2 19.0 V 691 – Steward Observatory, Kitt Peak-Spacewatch MPS 98778
2004 02 14.24996 08 41 26.64 +19 51 53.8 18.7 V 691 – Steward Observatory, Kitt Peak-Spacewatch MPS 98778
2004 02 14.27753 08 41 24.98 +19 51 57.3 19.2 V 691 – Steward Observatory, Kitt Peak-Spacewatch MPS 98778
2004 02 16.22168 08 39 35.68 +19 55 52.6 18.8   704 – Lincoln Laboratory ETS, New Mexico MPS 100059
2004 02 16.23361 08 39 35.03 +19 55 54.5 18.9   704 – Lincoln Laboratory ETS, New Mexico MPS 100059
2004 02 16.24533 08 39 34.34 +19 55 55.3 19.3   704 – Lincoln Laboratory ETS, New Mexico MPS 100059
2004 02 17.18295 08 38 43.48 +19 57 40.6 18.6   644 – Palomar Mountain/NEAT MPS 100059
2004 02 17.20297 08 38 42.36 +19 57 43.0 18.3   644 – Palomar Mountain/NEAT MPS 100059
2004 02 17.22377 08 38 41.20 +19 57 45.1 18.2   644 – Palomar Mountain/NEAT MPS 100059
2004 02 18.31293 08 37 43.55 +19 59 40.1 19.5   608 – Haleakala-AMOS MPS 100059
2004 02 18.32374 08 37 42.96 +19 59 41.1 19.6   608 – Haleakala-AMOS MPS 100059
2004 02 18.33452 08 37 42.36 +19 59 42.2 20.8   608 – Haleakala-AMOS MPS 100059
2004 02 26.22213 08 31 40.69 +20 09 13.6 18.9   704 – Lincoln Laboratory ETS, New Mexico MPS 100059
2004 02 26.23345 08 31 40.25 +20 09 13.8 19.7   704 – Lincoln Laboratory ETS, New Mexico MPS 100059
2004 02 26.24469 08 31 39.78 +20 09 15.0 19.7   704 – Lincoln Laboratory ETS, New Mexico MPS 100059
2004 02 26.25607 08 31 39.24 +20 09 15.6 19.4   704 – Lincoln Laboratory ETS, New Mexico MPS 100059
2004 02 26.26746 08 31 38.78 +20 09 15.2 19.1   704 – Lincoln Laboratory ETS, New Mexico MPS 100059
2006 10 11.30260 02 37 03.76 +18 15 20.2   691 – Steward Observatory, Kitt Peak-Spacewatch MPS 182438
2006 10 11.32003 02 37 02.93 +18 15 17.2   691 – Steward Observatory, Kitt Peak-Spacewatch MPS 182438
2006 10 11.34080 02 37 01.87 +18 15 14.0   691 – Steward Observatory, Kitt Peak-Spacewatch MPS 182438
2006 10 21.47630 02 28 02.58 +17 42 06.0 19.4 R 644 – Palomar Mountain/NEAT MPS 185363
2006 10 21.49658 02 28 01.38 +17 42 00.8 20.1 R 644 – Palomar Mountain/NEAT MPS 185363
2006 10 21.51689 02 28 00.24 +17 41 56.0 20.3 R 644 – Palomar Mountain/NEAT MPS 185363
2006 10 23.26271 02 26 19.00 +17 35 05.8 19.7 V 691 – Steward Observatory, Kitt Peak-Spacewatch MPS 183992
2006 10 23.28008 02 26 17.92 +17 35 01.7 20.0 V 691 – Steward Observatory, Kitt Peak-Spacewatch MPS 183992
2006 10 23.29746 02 26 16.86 +17 34 57.6 20.1 V 691 – Steward Observatory, Kitt Peak-Spacewatch MPS 183992
2006 10 28.26064 02 21 20.50 +17 13 59.5 20.0 V 691 – Steward Observatory, Kitt Peak-Spacewatch MPS 185363
2006 10 28.28489 02 21 18.97 +17 13 53.0 19.9 V 691 – Steward Observatory, Kitt Peak-Spacewatch MPS 185363
2006 10 28.30228 02 21 17.88 +17 13 49.1 19.8 V 691 – Steward Observatory, Kitt Peak-Spacewatch MPS 185363
2006 11 09.19651 02 09 26.69 +16 18 01.7 20.0 R 644 – Palomar Mountain/NEAT MPS 190401
2006 11 09.19653 02 09 26.65 +16 18 01.9   691 – Steward Observatory, Kitt Peak-Spacewatch MPS 186492
2006 11 09.20726 02 09 26.05 +16 17 59.4   691 – Steward Observatory, Kitt Peak-Spacewatch MPS 186492
2006 11 09.21715 02 09 25.44 +16 17 55.8 19.4 R 644 – Palomar Mountain/NEAT MPS 190401
